Meath Environmental Platform

Observations for Trim Market St

Time AQI Temp °C Hum % Pres Pa CO μg/m³ H₂S μg/m³ NO μg/m³ NO₂ μg/m³ O₃ μg/m³ SO₂ μg/m³ PM1 μg/m³ PM2.5 μg/m³ PM10 μg/m³
Tuesday 14 July 2026
10:46 1 33.4 33 66,212 0 0 0 0 20.55 0 3.56 6.4 6.68
10:45 1 33.4 34 66,194 0 0 0 0 15.25 0 1.43 5.31 5.84
10:41 1 33 34 66,115 0 0 0 0.78 22.04 0 2.85 6.35 8.36
10:40 1 32.9 34 66,102 0 0 0 0 24.67 0 4.28 7.95 10.04
10:39 1 32.9 35 66,084 0 0 0 0 15.05 0 1.43 4.72 5.19
10:35 1 32.6 35 66,041 0 0 0 0 27.4 0 2.85 5.79 7.53
10:29 1 32.2 35 66,003 0 0 0 0 28.37 0 2.85 6.3 8.36
10:27 1 32.1 35 65,993 0 0 0 0 22.49 0 2.85 5.22 5.75
10:24 1 32 35 65,914 0 0 0 0 23.98 0 2.14 5.76 6.69
10:21 1 32 36 65,912 0 0 0 0 26.17 0 2.85 5.21 5.86
10:20 1 32 36 65,880 0 0 0 0 26.02 0 2.14 5.21 5.73
10:19 1 31.9 36 65,872 0 0 0 0 16.75 0 2.14 5.2 5.87
10:18 1 31.9 36 65,862 0 0 0 0 16.76 0 3.56 5.72 5.87
10:17 1 31.9 36 65,849 0 0 0 0 22.38 0 2.85 6.24 8.35
10:16 1 31.8 36 65,797 0 0 0 0.34 18.63 0 2.85 5.7 5.87
10:15 1 31.7 37 65,789 0 0 0 0 29.46 0 2.14 4.62 5.05
10:14 1 31.7 37 65,786 0 0 0 0 21.34 0 3.56 5.69 6.7
10:13 1 31.6 37 65,750 0 0 0 0 20.16 0 4.28 7.28 10
10:12 1 31.6 37 65,766 0 0 0 2.36 22.61 0 1.43 5.15 5.67
10:11 1 31.5 37 65,756 0 0 0 0 27.63 0 2.85 6.22 6.7